Richmond, VA

6:29 AM EST on December 16, 2019 (GMT -0500)
Richmond International

Weather History for KRIC - October, 2019

Change the Weather History Date:

Monday, October 14, 2019

  Actual Average Record
Temperature  
Mean Temperature 64 °F 60 °F  
Max Temperature 73 °F 71 °F 87 °F (1970)
Min Temperature 53 °F 49 °F 27 °F (1988)
Degree Days  
Heating Degree Days 1 6  
Month to date heating degree days 63  
Since 1 July heating degree days 92  
Cooling Degree Days 0 1  
Month to date cooling degree days 27  
Year to date cooling degree days 1531  
Growing Degree Days 14 (Base 50)    
Moisture  
Dew Point 57 °F    
Average Humidity 84    
Maximum Humidity 97    
Minimum Humidity 51    
Precipitation  
Precipitation 0.01 in 0.09 in 2.10 in (1977)
Month to date precipitation 1.36  
Year to date precipitation 35.48  
Snow  
Snow - 0.00 in 0.00 in (2002)
Month to date snowfall 0.0  
Since 1 July snowfall 0.0  
Snow Depth -    
Sea Level Pressure  
Sea Level Pressure 30.03 in    
Wind  
Wind Speed 3 mph ()    
Max Wind Speed 7 mph    
Max Gust Speed -    
Visibility 8.2 miles    
Events Rain    
T = Trace of Precipitation, MM = Missing Value Source: Averaged Metar Reports

Daily Weather History Graph

Daily Weather History Graph

Search for Another Location

Airport or City:

Astronomy

Oct. 14, 2019 Rise Set
Actual Time 7:16 AM EDT 6:33 PM EDT
Civil Twilight 6:49 AM EDT 7:00 PM EDT
Nautical Twilight 6:19 AM EDT 7:30 PM EDT
Astronomical Twilight 5:49 AM EDT 8:00 PM EDT
Moon 7:23 PM EDT (10/14) 7:46 AM EDT (10/14)
Length of Visible Light 12h 10m
Length of Day
11h 17m
Waxing Gibbous, 99% of the Moon is Illuminated
Oct 14
Waxing Gibbous
Oct 21
Last Quarter
Oct 27
New
Nov 4
First Quarter
Nov 12
Full

Hourly Weather History & Observations

Time (EDT) Temp. Dew Point Humidity Pressure Visibility Wind Dir Wind Speed Gust Speed Precip Events Conditions
12:06 AM 63.0 °F 61.0 °F 93% 30.00 in 5.0 mi Calm Calm - N/A   Overcast
12:26 AM 62.1 °F 61.0 °F 96% 29.99 in 5.0 mi NNW 5.8 mph - N/A   Overcast
12:54 AM 61.0 °F 60.1 °F 97% 30.01 in 4.0 mi North 5.8 mph - N/A   Overcast
1:54 AM 59.0 °F 57.9 °F 96% 30.00 in 4.0 mi North 5.8 mph - 0.00 in Rain Light Rain
2:54 AM 59.0 °F 57.9 °F 96% 29.99 in 5.0 mi North 3.5 mph - 0.01 in   Overcast
3:54 AM 59.0 °F 57.9 °F 96% 29.98 in 4.0 mi North 4.6 mph - N/A   Overcast
4:54 AM 59.0 °F 57.9 °F 96% 29.98 in 5.0 mi North 4.6 mph - N/A   Overcast
5:54 AM 62.1 °F 57.9 °F 86% 30.00 in 6.0 mi Calm Calm - N/A   Overcast
6:54 AM 60.1 °F 59.0 °F 96% 30.02 in 4.0 mi Calm Calm - N/A   Overcast
7:54 AM 61.0 °F 59.0 °F 93% 30.04 in 10.0 mi WNW 6.9 mph - N/A   Overcast
8:31 AM 61.0 °F 57.9 °F 90% 30.04 in 8.0 mi WNW 5.8 mph - N/A   Overcast
8:54 AM 61.0 °F 59.0 °F 93% 30.06 in 9.0 mi WNW 5.8 mph - N/A   Overcast
9:42 AM 60.1 °F 57.9 °F 93% 30.07 in 7.0 mi West 6.9 mph - N/A   Overcast
9:54 AM 60.1 °F 57.9 °F 93% 30.09 in 8.0 mi WNW 6.9 mph - N/A   Overcast
10:54 AM 61.0 °F 57.0 °F 87% 30.09 in 10.0 mi West 3.5 mph - N/A   Overcast
11:54 AM 62.1 °F 57.9 °F 86% 30.09 in 10.0 mi NW 4.6 mph - N/A   Overcast
12:09 PM 63.0 °F 57.9 °F 84% 30.07 in 10.0 mi NW 4.6 mph - N/A   Overcast
12:54 PM 64.0 °F 57.9 °F 80% 30.08 in 10.0 mi NNW 5.8 mph - N/A   Overcast
1:10 PM 66.0 °F 57.9 °F 75% 30.05 in 10.0 mi WNW 3.5 mph - N/A   Mostly Cloudy
1:25 PM 66.9 °F 57.0 °F 70% 30.04 in 10.0 mi North 4.6 mph - N/A   Scattered Clouds
1:54 PM 66.9 °F 57.9 °F 73% 30.04 in 10.0 mi Variable 3.5 mph - N/A   Partly Cloudy
2:54 PM 71.1 °F 57.9 °F 63% 30.01 in 10.0 mi East 4.6 mph - N/A   Partly Cloudy
3:54 PM 72.0 °F 57.0 °F 59% 30.01 in 10.0 mi SSW 4.6 mph - N/A   Partly Cloudy
4:54 PM 73.0 °F 54.0 °F 51% 30.00 in 10.0 mi SW 3.5 mph - N/A   Partly Cloudy
5:54 PM 72.0 °F 55.9 °F 57% 30.01 in 10.0 mi South 4.6 mph - N/A   Clear
6:54 PM 64.9 °F 57.0 °F 75% 30.01 in 10.0 mi South 3.5 mph - N/A   Clear
7:54 PM 62.1 °F 55.9 °F 80% 30.04 in 10.0 mi Calm Calm - N/A   Clear
8:54 PM 60.1 °F 55.9 °F 86% 30.04 in 10.0 mi Calm Calm - N/A   Clear
9:54 PM 57.0 °F 53.1 °F 87% 30.06 in 10.0 mi Calm Calm - N/A   Clear
10:54 PM 55.0 °F 52.0 °F 89% 30.07 in 10.0 mi Calm Calm - N/A   Clear
11:54 PM 53.1 °F 50.0 °F 89% 30.08 in 10.0 mi Calm Calm - N/A   Clear